| time (UTC) | temp C | wind direction | speed KPH | gust KPH | rain 1hr cm | rain 24hr cm | rain mn cm | humidity % | barometer mb |
| 20260504081921 | 12 | 191 | 4.8 | 14.5 | 0.00 | 0.00 | 0.00 | 84 | 1014.6 |
| 20260504081424 | 12 | 230 | 6.4 | 14.5 | 0.00 | 0.00 | 0.00 | 84 | 1014.4 |
| 20260504080930 | 12 | 249 | 4.8 | 16.1 | 0.00 | 0.00 | 0.00 | 84 | 1014.5 |
| 20260504080436 | 12 | 247 | 6.4 | 16.1 | 0.00 | 0.00 | 0.00 | 84 | 1014.6 |
| 20260504050438 | 13 | 277 | 9.7 | 22.5 | 0.00 | 0.00 | 0.00 | 83 | 1014.3 |
| 20260504045951 | 13 | 249 | 11.3 | 24.1 | 0.00 | 0.00 | 0.00 | 83 | 1014.1 |
| 20260504045436 | 13 | 210 | 11.3 | 24.1 | 0.00 | 0.00 | 0.00 | 83 | 1014.1 |
| 20260504044938 | 13 | 273 | 11.3 | 20.9 | 0.00 | 0.00 | 0.00 | 83 | 1014.0 |
| 20260504044425 | 13 | 236 | 12.9 | 20.9 | 0.00 | 0.00 | 0.00 | 83 | 1014.0 |
| 20260504043933 | 13 | 270 | 11.3 | 20.9 | 0.00 | 0.00 | 0.00 | 83 | 1014.0 |
| 20260504043421 | 13 | 240 | 8.0 | 24.1 | 0.00 | 0.00 | 0.00 | 83 | 1013.9 |
| 20260504042956 | 13 | 255 | 12.9 | 24.1 | 0.00 | 0.00 | 0.00 | 83 | 1013.9 |
| 20260504042451 | 13 | 237 | 9.7 | 22.5 | 0.00 | 0.00 | 0.00 | 83 | 1013.7 |
| 20260504041935 | 13 | 225 | 9.7 | 22.5 | 0.00 | 0.00 | 0.00 | 83 | 1013.8 |
| 20260504041419 | 13 | 263 | 11.3 | 24.1 | 0.00 | 0.00 | 0.00 | 83 | 1013.7 |
| 20260504040925 | 13 | 292 | 9.7 | 24.1 | 0.00 | 0.00 | 0.00 | 82 | 1013.6 |
| 20260504040434 | 13 | 306 | 11.3 | 24.1 | 0.00 | 0.00 | 0.00 | 82 | 1013.6 |
| 20260504035919 | 13 | 263 | 14.5 | 27.4 | 0.00 | 0.00 | 0.00 | 82 | 1013.5 |
| 20260504035424 | 13 | 233 | 12.9 | 24.1 | 0.00 | 0.00 | 0.00 | 81 | 1013.4 |
| 20260504034932 | 13 | 240 | 11.3 | 22.5 | 0.00 | 0.00 | 0.00 | 81 | 1013.3 |
| 20260504034419 | 13 | 247 | 9.7 | 19.3 | 0.00 | 0.00 | 0.00 | 81 | 1013.2 |
| 20260504033926 | 13 | 245 | 11.3 | 20.9 | 0.00 | 0.00 | 0.00 | 81 | 1013.1 |
| 20260504033431 | 13 | 261 | 9.7 | 24.1 | 0.00 | 0.00 | 0.00 | 81 | 1013.1 |
| 20260504032937 | 13 | 226 | 11.3 | 24.1 | 0.00 | 0.00 | 0.00 | 80 | 1013.1 |
| 20260504032425 | 13 | 216 | 11.3 | 25.7 | 0.00 | 0.00 | 0.00 | 80 | 1012.9 |
| 20260504031932 | 13 | 251 | 11.3 | 25.7 | 0.00 | 0.00 | 0.00 | 79 | 1012.9 |
| 20260504031418 | 13 | 233 | 12.9 | 25.7 | 0.00 | 0.00 | 0.00 | 79 | 1013.0 |
| 20260504030946 | 13 | 222 | 12.9 | 25.7 | 0.00 | 0.00 | 0.00 | 79 | 1013.0 |
| 20260504030431 | 13 | 237 | 14.5 | 24.1 | 0.00 | 0.00 | 0.00 | 79 | 1013.0 |
| 20260504025932 | 13 | 261 | 12.9 | 27.4 | 0.00 | 0.00 | 0.00 | 79 | 1013.0 |
| 20260504025441 | 13 | 260 | 9.7 | 27.4 | 0.00 | 0.00 | 0.00 | 78 | 1013.0 |
| 20260504024946 | 13 | 228 | 11.3 | 30.6 | 0.00 | 0.00 | 0.00 | 78 | 1013.0 |
| 20260504024431 | 13 | 228 | 16.1 | 30.6 | 0.00 | 0.00 | 0.00 | 77 | 1012.9 |
| 20260504023919 | 13 | 261 | 12.9 | 24.1 | 0.00 | 0.00 | 0.00 | 77 | 1012.8 |
| 20260504023426 | 13 | 224 | 12.9 | 25.7 | 0.00 | 0.00 | 0.00 | 77 | 1012.8 |
| 20260504022929 | 13 | 222 | 12.9 | 25.7 | 0.00 | 0.00 | 0.00 | 78 | 1012.9 |
| 20260504022435 | 13 | 263 | 14.5 | 27.4 | 0.00 | 0.00 | 0.00 | 77 | 1012.9 |
| 20260504021922 | 14 | 284 | 11.3 | 20.9 | 0.00 | 0.00 | 0.00 | 78 | 1012.8 |
| 20260504021431 | 14 | 310 | 9.7 | 24.1 | 0.00 | 0.00 | 0.00 | 78 | 1012.8 |
| 20260504020918 | 14 | 260 | 11.3 | 22.5 | 0.00 | 0.00 | 0.00 | 77 | 1012.7 |
| 20260504020455 | 14 | 234 | 11.3 | 25.7 | 0.00 | 0.00 | 0.00 | 77 | 1012.7 |
| 20260504015941 | 14 | 235 | 11.3 | 25.7 | 0.00 | 0.00 | 0.00 | 77 | 1012.8 |
| 20260504015424 | 14 | 251 | 11.3 | 22.5 | 0.00 | 0.00 | 0.00 | 77 | 1012.8 |
| 20260504014932 | 15 | 259 | 9.7 | 22.5 | 0.00 | 0.00 | 0.00 | 77 | 1012.8 |
| 20260504014438 | 15 | 275 | 11.3 | 25.7 | 0.00 | 0.00 | 0.00 | 77 | 1012.8 |
| 20260504013925 | 14 | 217 | 11.3 | 25.7 | 0.00 | 0.00 | 0.00 | 76 | 1012.9 |
| 20260504013432 | 14 | 238 | 12.9 | 29.0 | 0.00 | 0.00 | 0.00 | 76 | 1013.1 |
| 20260504012918 | 15 | 275 | 14.5 | 29.0 | 0.00 | 0.00 | 0.00 | 75 | 1013.1 |
| 20260504012445 | 15 | 184 | 14.5 | 29.0 | 0.00 | 0.00 | 0.00 | 75 | 1013.1 |
| 20260504011947 | 15 | 273 | 12.9 | 27.4 | 0.00 | 0.00 | 0.00 | 76 | 1012.9 |
| 20260504011431 | 15 | 205 | 11.3 | 27.4 | 0.00 | 0.00 | 0.00 | 76 | 1013.0 |
| 20260504010920 | 15 | 223 | 12.9 | 27.4 | 0.00 | 0.00 | 0.00 | 77 | 1013.0 |
| 20260504010429 | 14 | 261 | 11.3 | 30.6 | 0.00 | 0.00 | 0.00 | 77 | 1013.0 |
| 20260504005934 | 14 | 221 | 16.1 | 30.6 | 0.00 | 0.00 | 0.00 | 76 | 1013.1 |
| 20260504005422 | 15 | 283 | 16.1 | 30.6 | 0.00 | 0.00 | 0.00 | 77 | 1013.1 |
| 20260504004929 | 15 | 242 | 12.9 | 30.6 | 0.00 | 0.00 | 0.00 | 76 | 1013.1 |
| 20260504004432 | 15 | 244 | 11.3 | 29.0 | 0.00 | 0.00 | 0.00 | 76 | 1013.0 |
| 20260504003919 | 15 | 262 | 12.9 | 27.4 | 0.00 | 0.00 | 0.00 | 76 | 1013.1 |
| 20260504003419 | 15 | 252 | 12.9 | 30.6 | 0.00 | 0.00 | 0.00 | 76 | 1013.1 |
| 20260504002945 | 15 | 250 | 14.5 | 30.6 | 0.00 | 0.00 | 0.00 | 75 | 1013.1 |
| 20260504002430 | 15 | 196 | 8.0 | 20.9 | 0.00 | 0.00 | 0.00 | 75 | 1013.1 |
| 20260504001936 | 15 | 270 | 9.7 | 22.5 | 0.00 | 0.00 | 0.00 | 75 | 1013.0 |
| 20260504001452 | 15 | 208 | 12.9 | 24.1 | 0.00 | 0.00 | 0.00 | 74 | 1012.9 |
| 20260504000921 | 15 | 222 | 12.9 | 24.1 | 0.00 | 0.00 | 0.00 | 73 | 1012.9 |
| 20260504000431 | 15 | 236 | 8.0 | 24.1 | 0.00 | 0.00 | 0.00 | 74 | 1012.9 |
| 20260503235934 | 15 | 235 | 14.5 | 25.7 | 0.00 | 0.00 | 0.00 | 74 | 1012.9 |
| 20260503235419 | 15 | 260 | 11.3 | 27.4 | 0.00 | 0.00 | 0.00 | 73 | 1012.8 |
| 20260503234925 | 15 | 268 | 14.5 | 27.4 | 0.00 | 0.00 | 0.00 | 73 | 1012.8 |
| 20260503234433 | 15 | 256 | 12.9 | 25.7 | 0.00 | 0.00 | 0.00 | 73 | 1012.8 |
| 20260503233940 | 15 | 278 | 12.9 | 27.4 | 0.00 | 0.00 | 0.00 | 74 | 1012.8 |
| 20260503233445 | 15 | 258 | 14.5 | 29.0 | 0.00 | 0.00 | 0.00 | 74 | 1012.8 |
| 20260503232931 | 15 | 290 | 8.0 | 29.0 | 0.00 | 0.00 | 0.00 | 75 | 1012.9 |
| 20260503232418 | 15 | 256 | 14.5 | 25.7 | 0.00 | 0.00 | 0.00 | 75 | 1012.9 |
| 20260503231919 | 15 | 256 | 16.1 | 25.7 | 0.00 | 0.00 | 0.00 | 76 | 1013.0 |
| 20260503231454 | 15 | 226 | 9.7 | 25.7 | 0.00 | 0.00 | 0.00 | 76 | 1013.0 |
| 20260503230917 | 15 | 205 | 9.7 | 25.7 | 0.00 | 0.00 | 0.00 | 76 | 1013.0 |
| 20260503230423 | 15 | 287 | 14.5 | 25.7 | 0.00 | 0.00 | 0.00 | 75 | 1012.9 |
| 20260503225924 | 15 | 316 | 12.9 | 24.1 | 0.00 | 0.00 | 0.00 | 75 | 1013.0 |
| 20260503225432 | 15 | 242 | 11.3 | 22.5 | 0.00 | 0.00 | 0.00 | 74 | 1012.9 |
| 20260503224918 | 15 | 246 | 8.0 | 25.7 | 0.00 | 0.00 | 0.00 | 74 | 1012.9 |
| 20260503224420 | 15 | 227 | 11.3 | 27.4 | 0.00 | 0.00 | 0.00 | 74 | 1013.1 |
| 20260503223956 | 15 | 239 | 8.0 | 27.4 | 0.00 | 0.00 | 0.00 | 74 | 1013.1 |
| 20260503223422 | 15 | 282 | 12.9 | 24.1 | 0.00 | 0.00 | 0.00 | 74 | 1013.1 |
| 20260503222929 | 15 | 268 | 9.7 | 27.4 | 0.00 | 0.00 | 0.00 | 74 | 1013.1 |
| 20260503222416 | 15 | 244 | 12.9 | 27.4 | 0.00 | 0.00 | 0.00 | 73 | 1013.1 |
| 20260503221925 | 15 | 226 | 11.3 | 27.4 | 0.00 | 0.00 | 0.00 | 74 | 1013.1 |
| 20260503221429 | 15 | 208 | 11.3 | 27.4 | 0.00 | 0.00 | 0.00 | 73 | 1013.2 |
| 20260503220931 | 15 | 203 | 14.5 | 27.4 | 0.00 | 0.00 | 0.00 | 73 | 1013.1 |
| 20260503220418 | 15 | 201 | 14.5 | 24.1 | 0.00 | 0.00 | 0.00 | 72 | 1013.2 |
| 20260503215940 | 15 | 250 | 11.3 | 29.0 | 0.00 | 0.00 | 0.00 | 72 | 1013.1 |
| 20260503215428 | 15 | 273 | 16.1 | 29.0 | 0.00 | 0.00 | 0.00 | 72 | 1013.0 |
| 20260503214936 | 16 | 190 | 12.9 | 25.7 | 0.00 | 0.00 | 0.00 | 72 | 1013.0 |
| 20260503214425 | 16 | 213 | 9.7 | 30.6 | 0.00 | 0.00 | 0.00 | 72 | 1013.0 |
| 20260503213929 | 15 | 199 | 14.5 | 30.6 | 0.00 | 0.00 | 0.00 | 71 | 1013.0 |
| 20260503213432 | 16 | 219 | 16.1 | 30.6 | 0.00 | 0.00 | 0.00 | 71 | 1013.0 |
| 20260503212917 | 16 | 282 | 14.5 | 30.6 | 0.00 | 0.00 | 0.00 | 71 | 1013.0 |
| 20260503212441 | 16 | 221 | 11.3 | 25.7 | 0.00 | 0.00 | 0.00 | 70 | 1013.1 |
| 20260503211924 | 16 | 256 | 12.9 | 24.1 | 0.00 | 0.00 | 0.00 | 70 | 1013.1 |
| 20260503211430 | 16 | 244 | 16.1 | 30.6 | 0.00 | 0.00 | 0.00 | 70 | 1013.0 |
| 20260503210937 | 16 | 202 | 17.7 | 30.6 | 0.00 | 0.00 | 0.00 | 68 | 1013.0 |
| 20260503210438 | 16 | 236 | 8.0 | 24.1 | 0.00 | 0.00 | 0.00 | 70 | 1012.9 |
| 20260503205952 | 16 | 284 | 11.3 | 20.9 | 0.00 | 0.00 | 0.00 | 70 | 1012.9 |
| 20260503205446 | 16 | 244 | 11.3 | 24.1 | 0.00 | 0.00 | 0.00 | 71 | 1012.8 |
| 20260503204931 | 16 | 227 | 9.7 | 24.1 | 0.00 | 0.00 | 0.00 | 71 | 1012.9 |
| 20260503204418 | 16 | 263 | 11.3 | 20.9 | 0.00 | 0.00 | 0.00 | 71 | 1012.9 |
| 20260503203924 | 16 | 212 | 9.7 | 24.1 | 0.00 | 0.00 | 0.00 | 72 | 1012.8 |
| 20260503203433 | 16 | 259 | 12.9 | 24.1 | 0.00 | 0.00 | 0.00 | 72 | 1012.9 |
| 20260503202918 | 16 | 212 | 8.0 | 20.9 | 0.00 | 0.00 | 0.00 | 73 | 1013.0 |
| 20260503202420 | 15 | 249 | 12.9 | 24.1 | 0.00 | 0.00 | 0.00 | 72 | 1013.0 |
| 20260503201926 | 16 | 228 | 11.3 | 20.9 | 0.00 | 0.00 | 0.00 | 73 | 1013.0 |
| 20260503201434 | 15 | 239 | 8.0 | 25.7 | 0.00 | 0.00 | 0.00 | 73 | 1013.1 |
| 20260503200922 | 15 | 244 | 9.7 | 25.7 | 0.00 | 0.00 | 0.00 | 73 | 1013.2 |
| 20260503200428 | 15 | 246 | 11.3 | 20.9 | 0.00 | 0.00 | 0.00 | 73 | 1013.1 |
| 20260503195933 | 16 | 205 | 9.7 | 20.9 | 0.00 | 0.00 | 0.00 | 72 | 1013.2 |
| 20260503195419 | 15 | 285 | 6.4 | 20.9 | 0.00 | 0.00 | 0.00 | 73 | 1013.2 |
| 20260503194942 | 15 | 302 | 8.0 | 20.9 | 0.00 | 0.00 | 0.00 | 73 | 1013.2 |
| 20260503194455 | 15 | 251 | 8.0 | 22.5 | 0.00 | 0.00 | 0.00 | 74 | 1013.3 |
| 20260503193922 | 15 | 294 | 11.3 | 22.5 | 0.00 | 0.00 | 0.00 | 74 | 1013.4 |
| 20260503193429 | 15 | 224 | 11.3 | 27.4 | 0.00 | 0.00 | 0.00 | 73 | 1013.3 |
| 20260503192934 | 15 | 284 | 14.5 | 27.4 | 0.00 | 0.00 | 0.00 | 72 | 1013.3 |
| 20260503192421 | 15 | 264 | 11.3 | 24.1 | 0.00 | 0.00 | 0.00 | 72 | 1013.4 |
| 20260503191927 | 16 | 261 | 9.7 | 24.1 | 0.00 | 0.00 | 0.00 | 71 | 1013.3 |
| 20260503191431 | 16 | 226 | 9.7 | 24.1 | 0.00 | 0.00 | 0.00 | 71 | 1013.3 |
| 20260503190937 | 16 | 280 | 6.4 | 30.6 | 0.00 | 0.00 | 0.00 | 72 | 1013.3 |
| 20260503190451 | 16 | 235 | 12.9 | 24.1 | 0.00 | 0.00 | 0.00 | 72 | 1013.4 |
| 20260503185926 | 16 | 171 | 11.3 | 24.1 | 0.00 | 0.00 | 0.00 | 72 | 1013.4 |
| 20260503185433 | 16 | 194 | 11.3 | 27.4 | 0.00 | 0.00 | 0.00 | 72 | 1013.4 |
| 20260503184916 | 16 | 224 | 12.9 | 27.4 | 0.00 | 0.00 | 0.00 | 72 | 1013.5 |
| 20260503184421 | 16 | 251 | 11.3 | 22.5 | 0.00 | 0.00 | 0.00 | 72 | 1013.4 |
| 20260503183923 | 16 | 233 | 8.0 | 19.3 | 0.00 | 0.00 | 0.00 | 73 | 1013.4 |
| 20260503183430 | 15 | 202 | 9.7 | 17.7 | 0.00 | 0.00 | 0.00 | 74 | 1013.4 |
| 20260503182935 | 15 | 290 | 8.0 | 19.3 | 0.00 | 0.00 | 0.00 | 74 | 1013.4 |
| 20260503182419 | 15 | 242 | 8.0 | 19.3 | 0.00 | 0.00 | 0.00 | 74 | 1013.3 |
| 20260503181926 | 15 | 234 | 8.0 | 20.9 | 0.00 | 0.00 | 0.00 | 75 | 1013.4 |
| 20260503181430 | 15 | 270 | 9.7 | 20.9 | 0.00 | 0.00 | 0.00 | 75 | 1013.3 |
| 20260503180933 | 15 | 275 | 8.0 | 22.5 | 0.00 | 0.00 | 0.00 | 76 | 1013.3 |
| 20260503180437 | 14 | 330 | 12.9 | 22.5 | 0.00 | 0.00 | 0.00 | 76 | 1013.4 |
| 20260503175920 | 14 | 339 | 11.3 | 20.9 | 0.00 | 0.00 | 0.00 | 77 | 1013.2 |
| 20260503175456 | 14 | 270 | 14.5 | 24.1 | 0.00 | 0.00 | 0.00 | 76 | 1013.3 |
| 20260503174949 | 14 | 282 | 12.9 | 25.7 | 0.00 | 0.00 | 0.00 | 77 | 1013.2 |
| 20260503174434 | 14 | 290 | 16.1 | 25.7 | 0.00 | 0.00 | 0.00 | 77 | 1013.2 |
| 20260503173919 | 14 | 339 | 9.7 | 19.3 | 0.00 | 0.00 | 0.00 | 77 | 1013.2 |
| 20260503173424 | 14 | 277 | 8.0 | 16.1 | 0.00 | 0.00 | 0.00 | 77 | 1013.2 |
| 20260503172925 | 14 | 268 | 6.4 | 16.1 | 0.00 | 0.00 | 0.00 | 77 | 1013.3 |
| 20260503172431 | 14 | 256 | 8.0 | 16.1 | 0.00 | 0.00 | 0.00 | 77 | 1013.2 |
| 20260503171949 | 14 | 193 | 8.0 | 20.9 | 0.00 | 0.00 | 0.00 | 77 | 1013.2 |
| 20260503171435 | 14 | 189 | 11.3 | 20.9 | 0.00 | 0.00 | 0.00 | 77 | 1013.2 |
| 20260503170942 | 14 | 193 | 8.0 | 19.3 | 0.00 | 0.00 | 0.00 | 77 | 1013.2 |
| 20260503170427 | 14 | 297 | 8.0 | 19.3 | 0.00 | 0.00 | 0.00 | 78 | 1013.2 |
| 20260503150927 | 12 | 45 | 1.6 | 9.7 | 0.00 | 0.00 | 0.00 | 81 | 1012.4 |
| 20260503150432 | 12 | 217 | 4.8 | 9.7 | 0.00 | 0.00 | 0.00 | 81 | 1012.4 |
| 20260503130954 | 12 | 218 | 4.8 | 9.7 | 0.00 | 0.00 | 0.00 | 81 | 1011.1 |
| 20260503130441 | 12 | 268 | 1.6 | 9.7 | 0.00 | 0.00 | 0.00 | 81 | 1011.0 |
| 20260503110418 | 12 | 284 | 4.8 | 14.5 | 0.00 | 0.00 | 0.00 | 83 | 1011.2 |
| 20260503090436 | 12 | 270 | 8.0 | 14.5 | 0.00 | 0.00 | 0.00 | 82 | 1011.6 |